Location: Agendoh
(31.0664°N, 8.9343°W)
Time: 18:40:21
(UTC+00:00)

Cosmos 1151 Rocket - Pass Details

Date: 04 July 2022
Orbit: 592 x 614 km, 82.5° (Epoch: 07 August)

Event Time Altitude Azimuth Distance (km) Brightness Sun altitude
Rises 03:46:52 0° 329° (NNW) 2,884 6.7 -19.9°
Reaches altitude 10° 03:50:04 10° 304° (NW) 1,974 5.5 -19.4°
Enters shadow 03:50:47 12° 295° (WNW) 1,849 5.3 -19.3°
